Wind_Speed
12 11 11 10 10 9 9 9 8 8 7 7 7 6 6 6 6 7 7 7 7 7 8 8 8 9 9 8 8 8 10 12 13 16 18 12 12 14 12 13 17 21 25 27 23 21 20 18 16 15 14 12 9 8 10 11 6 2 0 1 2 3 3 3 2 2 2 5 8 9 7 8 7 8 13 13 13 15 12 10 10 7 12 16 19 29 30 27
13 12 11 10 10 9 9 8 8 8 8 8 7 7 6 6 7 7 7 8 8 8 8 8 8 9 9 9 8 8 10 11 14 19 14 7 12 17 16 16 19 22 26 27 25 25 24 22 20 17 15 11 7 7 7 9 9 5 0 1 2 2 1 1 2 4 4 6 10 10 6 8 8 11 15 10 8 12 11 12 15 17 18 18 24 30 27 27
14 13 12 11 10 10 9 8 8 8 8 8 7 7 7 7 7 6 7 7 8 8 8 8 9 9 8 9 8 8 9 10 15 17 10 8 14 17 18 19 21 23 25 26 24 23 21 22 21 18 16 9 6 8 7 7 8 7 3 1 3 2 1 1 5 5 6 11 13 10 7 8 9 11 13 10 9 9 8 11 15 20 24 25 28 28 27 27
14 13 12 12 11 10 10 9 8 8 8 8 7 7 7 7 7 7 6 6 7 8 8 8 8 9 8 8 8 7 7 9 11 13 9 10 14 16 20 21 22 23 24 23 21 18 16 19 19 17 15 6 6 7 5 8 7 6 5 2 3 1 1 3 7 8 11 15 14 12 9 8 10 10 13 16 11 3 9 17 18 23 29 30 29 28 28 26
14 13 13 12 12 12 11 10 9 8 8 8 7 7 7 7 8 7 7 6 7 8 8 8 8 8 8 7 7 6 4 5 3 7 7 10 13 17 20 22 22 21 23 22 19 17 16 19 19 15 11 4 4 5 5 12 9 4 4 5 4 4 2 3 7 10 14 13 12 12 9 8 10 10 16 18 8 5 14 21 23 28 33 32 30 28 26 25
14 13 12 12 12 12 12 11 10 9 9 9 8 7 8 8 8 8 7 6 6 8 8 8 7 8 7 7 7 5 2 0 3 6 6 7 12 16 20 22 21 20 21 21 20 19 18 22 20 14 9 3 4 5 5 13 12 3 3 4 5 5 4 7 10 13 16 12 9 8 7 11 11 9 14 12 4 9 17 20 24 29 32 33 30 28 26 25
14 12 12 12 12 13 13 12 11 10 10 10 9 8 7 8 8 8 7 7 6 7 7 8 7 7 7 6 6 6 7 4 2 5 4 4 10 15 19 22 22 20 21 22 23 22 21 23 20 14 8 2 4 7 7 9 14 7 2 1 3 5 7 11 16 16 17 12 8 8 8 8 9 8 11 7 6 12 17 20 25 28 30 31 28 26 26 24
15 13 11 12 12 13 13 13 13 12 11 10 10 8 7 8 8 8 7 7 6 6 7 7 7 7 6 6 6 6 8 5 4 5 3 3 8 15 20 23 24 22 21 22 24 24 23 22 21 15 7 3 3 5 7 4 9 7 2 2 6 7 9 13 18 19 17 13 11 11 10 7 8 8 7 6 11 16 19 22 25 28 28 29 26 25 25 23
16 14 12 12 12 13 14 14 14 12 11 10 10 9 8 7 8 8 7 7 6 6 7 7 7 7 6 6 5 5 6 6 6 5 3 2 6 14 19 22 24 24 21 21 22 23 22 21 22 15 5 6 4 4 7 3 5 7 6 7 8 8 10 13 14 16 16 13 14 12 10 6 7 9 4 6 17 19 21 25 26 29 28 27 25 24 25 23
17 15 13 13 13 14 15 15 14 12 11 10 9 9 8 7 7 8 8 7 6 6 7 7 7 7 6 5 3 2 5 7 6 7 6 3 4 11 17 19 22 24 22 21 22 23 22 20 21 15 4 3 4 7 8 4 6 12 14 12 11 9 8 11 11 13 13 11 15 11 7 7 5 6 3 9 22 22 24 27 26 29 27 26 24 23 24 22
18 16 15 14 14 14 15 16 15 12 11 10 9 8 8 7 7 7 7 7 6 6 7 7 6 6 6 6 6 4 6 7 7 9 7 5 3 6 10 14 17 21 23 22 23 22 20 16 16 13 3 2 4 7 6 5 13 20 21 14 11 10 8 10 11 11 10 5 12 15 9 5 2 3 3 15 26 24 27 28 26 28 26 25 23 23 23 22
19 17 16 15 14 15 16 17 15 12 10 9 8 8 8 7 7 7 7 6 5 5 7 6 5 5 5 8 10 7 6 7 8 8 7 6 5 4 6 9 12 15 20 22 23 23 18 13 14 11 2 3 5 6 1 10 18 18 16 10 8 8 6 6 7 6 4 3 14 20 9 2 1 3 4 20 28 27 29 29 26 26 25 24 23 23 23 22
20 18 16 15 15 15 17 17 15 12 11 9 8 8 8 7 6 6 6 5 5 5 6 5 4 4 5 8 8 7 8 8 9 8 7 7 6 7 8 10 11 13 15 18 21 24 18 13 15 10 3 5 4 1 4 11 14 10 7 6 6 5 1 1 3 2 2 6 16 14 4 4 2 2 8 21 29 29 29 27 27 24 23 24 23 23 23 22
20 18 16 15 15 16 17 17 15 13 12 10 8 7 7 5 5 5 5 4 4 5 6 5 4 4 6 7 3 7 11 10 10 8 8 8 7 8 10 12 13 13 14 15 17 22 19 13 11 7 7 8 4 1 3 5 6 5 4 4 3 2 2 2 3 3 2 8 11 3 2 4 3 5 11 20 28 31 28 26 26 25 23 23 23 24 23 23
20 18 15 14 15 16 17 17 14 13 14 11 8 5 5 4 3 4 4 4 4 5 6 5 4 5 8 8 3 6 10 10 10 8 7 7 6 8 12 14 14 13 14 15 13 16 17 13 9 6 7 6 3 0 2 2 2 3 4 3 1 1 3 3 5 7 2 6 6 2 2 3 4 8 11 20 28 29 28 26 26 25 24 23 24 24 24 23
20 18 15 14 15 16 16 16 14 14 14 11 7 4 3 2 2 3 3 4 5 5 5 4 5 5 7 6 2 6 10 10 8 8 8 7 5 7 11 15 15 12 13 15 13 12 13 12 8 7 6 3 2 4 3 2 2 2 2 3 2 3 4 2 5 7 3 5 3 3 3 3 4 9 12 23 27 25 27 26 26 26 24 24 24 25 24 23
19 17 15 15 15 16 16 15 15 15 13 10 5 3 2 3 2 3 4 5 5 4 5 6 7 7 5 2 2 4 5 7 7 7 7 7 6 7 11 16 15 13 13 14 14 13 11 8 5 5 5 1 3 5 4 1 2 1 2 3 2 4 4 3 4 6 5 7 3 2 3 3 5 8 13 24 26 22 24 24 25 26 25 25 25 25 25 24
18 17 15 14 14 15 15 15 15 14 12 8 4 3 4 4 4 3 4 5 4 3 6 6 5 4 3 3 2 2 0 2 7 8 6 7 6 5 11 15 14 15 14 12 12 12 9 5 2 1 1 2 3 5 4 3 4 3 2 3 2 3 3 4 5 7 9 7 3 3 4 3 5 7 12 22 26 22 22 24 26 26 25 26 25 25 25 25
17 16 15 14 14 14 14 14 14 12 10 6 3 3 5 6 4 2 3 6 6 3 4 4 3 2 3 4 4 3 3 2 5 7 7 8 9 9 9 11 14 18 14 8 6 9 7 3 1 2 2 2 4 6 5 5 5 5 4 3 4 3 1 3 4 7 10 7 5 5 4 5 6 7 11 18 22 21 21 23 24 25 26 26 25 25 25 26
16 15 14 13 13 13 12 13 12 9 9 7 5 4 3 5 4 2 6 11 11 8 7 8 9 10 9 7 5 4 2 4 4 5 9 10 13 13 10 12 15 14 10 6 4 6 7 4 2 4 5 5 6 7 6 4 4 6 5 4 5 4 1 2 4 8 8 5 5 5 4 6 6 7 10 12 15 18 18 21 22 23 26 26 26 26 26 27
16 15 14 13 12 12 11 11 10 7 9 8 7 6 4 5 3 3 8 12 13 11 10 10 11 13 11 7 5 5 3 4 5 6 10 11 12 11 8 10 10 6 4 6 4 3 6 5 5 6 7 7 6 6 5 4 4 4 4 5 5 4 3 2 5 10 6 1 4 6 5 7 7 8 8 7 8 13 14 16 21 23 25 27 27 27 28 28
15 14 13 12 11 11 10 10 8 5 8 9 9 9 7 7 5 5 7 9 14 14 9 9 12 13 10 6 5 4 3 3 5 7 11 14 11 8 6 6 6 4 2 4 3 1 2 4 7 7 6 4 3 4 5 4 4 4 3 5 4 3 4 3 4 7 2 2 4 7 6 6 7 7 6 5 4 10 11 9 16 23 26 27 28 28 29 29
15 14 13 11 10 10 9 8 6 4 6 7 8 11 10 9 6 6 6 7 11 12 7 7 10 9 7 4 4 6 6 4 4 7 12 15 12 9 8 6 5 4 3 3 4 3 2 4 6 7 6 5 3 4 5 5 3 3 3 4 3 5 4 2 3 5 5 2 3 7 6 4 6 5 4 3 2 8 12 8 11 20 25 29 30 29 30 30
14 13 11 10 9 10 9 7 4 3 5 5 7 11 10 8 6 6 5 4 6 7 4 4 6 6 5 2 3 7 7 5 4 5 11 15 13 9 7 6 6 4 2 4 6 5 4 4 3 6 6 5 4 3 5 5 1 2 4 3 3 7 3 3 7 7 5 2 2 6 5 2 6 6 5 6 4 6 10 8 8 15 23 27 28 29 30 31
14 12 11 9 8 10 9 6 3 3 4 3 6 9 9 7 7 8 6 2 3 4 2 2 3 4 4 2 3 5 4 4 6 6 10 15 13 8 5 6 5 2 3 5 6 3 6 5 4 6 4 4 5 3 4 5 3 3 4 6 7 9 5 9 13 8 3 1 3 6 4 2 6 9 8 6 5 5 7 7 7 12 19 23 25 27 29 29
14 11 10 8 7 8 8 5 4 4 3 3 4 7 8 8 8 8 4 3 2 4 1 2 1 2 5 3 4 5 1 2 7 8 10 12 11 8 5 3 3 2 5 5 3 2 3 2 5 6 4 4 4 3 4 5 4 2 5 7 9 9 9 13 14 8 2 2 5 5 3 1 3 8 9 7 7 7 6 8 9 12 17 22 26 29 29 29
13 11 9 7 7 7 7 6 5 4 3 4 5 6 8 8 8 8 4 4 2 3 1 2 1 2 3 3 6 7 1 3 7 8 12 12 11 9 6 2 2 2 3 4 1 2 2 1 3 5 5 4 3 3 4 6 6 3 4 7 11 10 11 13 12 6 2 3 3 3 2 2 1 4 8 8 7 7 7 9 11 13 15 21 27 29 29 30
12 10 8 7 7 6 6 5 4 4 4 5 6 7 7 7 7 5 3 3 2 3 1 2 2 2 1 4 9 5 2 6 7 6 14 14 11 8 5 4 6 4 2 5 3 4 2 2 3 5 4 3 4 5 6 8 5 4 2 7 10 9 9 9 7 4 3 4 3 5 3 2 1 1 5 9 9 9 10 10 11 14 16 19 25 27 29 31
11 9 7 7 7 6 5 4 4 4 5 6 6 6 7 6 5 3 4 2 2 2 1 1 1 2 1 5 8 1 3 4 3 5 13 14 10 6 3 6 8 5 1 4 5 5 3 5 6 6 5 5 6 6 8 8 4 2 7 10 8 7 7 4 3 3 3 2 3 8 6 2 1 2 5 8 10 11 11 9 10 15 16 18 22 24 27 30
10 8 7 7 6 6 5 5 5 6 8 8 6 7 7 5 2 4 3 1 1 1 1 1 2 1 2 5 2 3 3 2 3 8 9 8 8 4 3 6 6 4 0 2 2 6 6 6 4 4 6 7 7 7 8 9 7 5 10 11 10 8 7 5 3 3 4 2 3 10 9 2 1 3 4 6 6 7 9 7 9 13 15 16 19 20 23 28
8 8 7 6 5 5 5 5 5 7 9 7 6 8 7 2 2 5 1 1 1 2 2 1 2 2 3 4 1 2 2 1 3 8 6 3 5 2 4 4 2 3 3 4 2 4 5 4 2 5 10 8 5 2 4 8 8 6 6 6 7 5 4 4 3 3 3 3 3 8 8 3 0 3 3 4 2 2 7 9 10 13 15 17 17 17 19 25
7 8 7 6 5 5 6 5 5 7 7 6 7 8 3 1 2 2 1 2 1 2 2 2 1 3 3 3 2 2 1 0 1 5 4 3 4 2 1 3 3 1 3 2 2 4 3 4 3 4 9 10 7 3 1 3 4 5 5 5 6 2 2 3 1 1 1 3 3 6 8 2 2 3 1 4 5 4 7 12 16 18 19 19 18 17 17 20
6 7 6 5 5 6 6 5 5 6 6 6 7 5 3 4 1 2 2 2 1 3 1 1 1 4 4 3 0 2 2 1 2 2 2 3 3 3 3 2 5 4 0 3 1 3 3 5 3 1 4 9 9 5 2 3 3 6 6 5 5 3 2 2 1 1 2 3 3 4 7 1 3 1 1 4 4 4 9 15 22 25 24 21 18 17 17 17
6 6 6 5 5 5 4 4 5 6 6 6 4 1 5 4 1 2 2 3 3 2 1 1 2 4 3 2 2 2 2 0 0 3 3 3 3 1 3 2 3 4 2 3 1 2 3 4 4 4 3 7 9 7 7 7 6 6 5 5 5 5 4 3 4 3 2 1 2 3 3 2 1 0 3 2 2 1 5 13 22 25 23 20 17 16 15 14
5 5 5 3 4 4 3 4 5 5 5 5 2 4 4 0 3 2 2 4 2 2 3 2 4 5 3 1 2 1 3 1 2 4 3 2 3 2 2 3 3 3 4 2 2 2 3 5 7 4 3 8 8 7 8 9 6 4 2 5 4 5 5 4 2 3 3 3 2 2 1 2 1 2 3 2 5 4 2 9 19 23 21 19 18 16 15 14
5 5 4 3 4 4 2 3 3 2 4 3 4 4 1 2 2 2 3 2 2 1 2 4 5 5 3 3 4 4 2 2 2 4 3 2 1 1 1 3 3 4 4 3 2 1 1 4 6 3 1 6 10 9 9 9 6 1 2 4 2 3 6 5 1 1 3 3 1 0 1 1 1 2 2 4 6 5 4 7 15 21 20 19 19 17 16 14
4 5 5 4 3 4 3 2 0 2 5 3 5 2 2 2 3 4 2 4 3 1 4 3 2 2 0 1 3 4 3 3 3 3 2 1 1 1 2 4 3 3 4 4 3 2 2 4 6 2 3 7 9 10 7 6 8 5 4 6 2 3 4 4 3 2 3 2 0 1 2 2 1 1 2 5 7 6 4 3 10 16 19 19 18 18 17 15
4 5 4 3 2 3 4 2 1 4 5 3 3 1 1 1 3 5 4 4 2 2 5 3 0 1 2 2 2 4 2 2 2 2 2 1 1 1 1 3 3 2 2 4 3 1 2 2 7 4 4 3 2 8 4 1 4 4 6 7 5 3 1 1 3 2 2 2 1 1 3 2 3 2 2 5 7 5 4 2 6 10 15 17 17 18 19 17
4 3 1 2 2 3 3 3 4 6 4 4 1 2 1 2 5 5 6 3 1 3 4 2 1 2 2 2 2 2 2 2 1 2 2 1 0 1 1 0 3 4 1 6 5 1 2 1 5 5 2 1 2 3 4 2 3 4 5 6 3 2 4 3 2 3 4 3 2 1 2 3 3 2 2 6 7 6 5 3 3 6 11 17 18 18 20 20
3 1 3 4 2 2 3 4 5 5 4 2 1 2 1 3 6 10 9 3 1 3 2 1 2 3 2 1 1 0 2 2 2 2 2 1 0 2 1 1 3 4 3 4 3 0 2 2 3 5 3 1 1 2 6 7 4 4 5 4 1 2 3 3 2 1 3 4 3 2 1 4 2 2 2 6 7 6 6 4 3 3 8 14 17 19 21 22
3 2 3 6 5 3 2 2 2 3 2 0 1 2 2 2 4 9 10 6 4 4 3 3 3 3 2 2 1 0 2 3 2 2 1 1 1 0 1 1 2 3 3 5 3 1 1 2 3 3 2 3 4 3 5 7 7 6 6 6 4 3 4 4 1 2 2 4 4 4 2 3 1 2 1 6 6 6 8 6 6 5 4 7 12 17 20 22
3 2 2 6 6 3 2 2 1 2 1 1 2 3 3 3 2 6 8 7 5 5 4 4 3 2 2 2 1 1 3 3 2 2 1 2 3 3 3 7 5 1 2 1 2 2 2 3 2 3 2 5 6 5 2 4 5 5 4 5 5 4 5 6 4 2 2 3 2 3 1 2 2 2 1 7 8 9 9 8 9 9 8 7 6 10 15 20
4 2 2 6 4 3 2 2 3 2 1 3 5 3 3 2 2 4 6 5 4 3 4 3 1 2 2 1 0 2 3 2 2 1 0 1 2 2 4 10 7 1 3 1 1 1 1 3 2 2 3 4 6 4 2 2 4 4 2 2 4 4 3 5 6 4 4 3 2 3 1 2 1 1 3 9 10 10 10 9 10 11 11 12 9 8 13 17
3 2 2 5 3 3 1 0 1 2 4 3 5 4 2 1 3 5 4 4 4 1 3 2 1 2 1 1 3 2 2 2 1 1 0 1 1 1 7 12 8 3 2 1 2 1 0 2 3 2 2 4 3 2 3 3 2 3 1 1 2 5 7 5 4 4 3 4 4 4 2 2 2 2 5 9 9 10 11 11 11 11 12 12 11 10 11 14
2 2 1 4 2 6 3 1 3 2 3 3 4 4 4 2 4 6 3 3 5 3 3 1 1 2 3 3 4 3 2 3 2 1 1 0 1 2 9 14 10 5 5 3 3 1 2 2 2 3 4 3 4 3 3 2 0 1 2 1 1 6 9 6 4 4 2 4 4 4 3 3 5 6 7 8 7 9 11 12 12 12 12 12 11 10 10 11
2 1 1 4 1 5 4 2 0 1 2 2 2 3 3 2 2 8 7 4 8 6 3 1 1 2 5 5 5 5 5 3 2 2 2 2 2 2 6 12 12 11 9 5 3 1 4 3 1 5 5 5 6 6 5 2 3 1 3 2 1 3 6 7 5 3 4 5 2 3 5 8 9 9 9 8 7 8 10 13 13 12 12 13 11 10 10 10
3 1 1 3 2 1 1 3 5 2 3 2 1 2 4 3 2 6 7 4 6 7 4 3 4 3 5 5 3 3 5 5 4 4 1 2 3 3 5 8 11 15 11 6 6 3 4 4 2 3 4 2 4 6 5 1 4 3 4 3 1 1 4 7 5 5 7 8 2 5 7 12 12 11 11 10 7 7 10 13 14 13 13 14 13 12 12 13
3 1 1 2 1 1 1 4 7 4 1 2 2 1 3 4 3 4 4 3 5 7 4 4 7 5 4 5 4 2 5 5 4 3 2 3 3 4 6 5 8 15 11 6 8 5 5 3 4 1 5 5 4 5 3 3 4 4 5 4 1 1 3 6 4 4 7 6 4 8 12 11 10 12 11 11 10 10 12 15 15 15 15 15 14 15 16 16
4 2 1 2 2 3 3 7 6 3 2 1 3 2 1 4 4 1 2 3 5 6 4 3 5 6 1 6 6 3 3 3 3 4 2 2 3 3 4 3 6 12 11 5 6 5 4 2 4 1 5 8 9 9 6 5 7 7 8 7 5 4 4 6 5 4 6 4 6 13 13 7 8 11 11 13 16 16 17 17 16 16 15 15 16 18 19 20
5 3 2 3 2 3 6 7 2 3 3 3 3 2 1 4 3 1 3 4 2 5 5 4 2 5 2 6 8 3 1 4 3 2 1 1 3 1 1 1 3 7 9 3 3 5 3 2 4 1 4 6 8 10 9 4 9 11 9 9 8 7 6 6 5 6 7 6 8 14 12 5 6 12 14 17 20 18 17 17 16 16 17 17 19 20 21 21
4 4 5 3 1 4 6 4 2 3 3 3 2 1 1 2 1 1 4 6 4 2 2 4 2 4 5 7 7 2 2 4 5 4 3 2 2 2 1 1 3 2 6 3 2 4 3 1 4 4 5 4 7 9 10 7 7 11 9 9 8 5 3 2 1 2 5 10 12 11 9 5 7 14 17 18 20 18 17 18 18 18 19 20 20 19 20 20
3 2 5 3 1 4 4 2 3 3 1 1 1 1 1 1 2 2 3 6 8 7 4 4 3 3 5 6 5 2 6 4 1 4 2 5 7 9 8 7 6 4 2 1 2 2 2 3 2 3 4 3 8 7 7 6 6 6 5 4 3 1 2 1 3 2 6 12 11 6 5 7 11 15 15 13 15 16 16 19 21 21 21 22 22 21 20 21
Wind_Direction
359 356 351 349 349 351 353 351 346 340 337 331 325 319 313 304 296 292 292 292 291 287 288 291 292 293 289 289 288 287 277 259 254 248 238 221 206 209 201 194 186 179 179 180 184 182 174 170 167 163 162 166 177 188 194 205 212 193 245 223 255 267 275 340 60 99 102 122 131 156 149 120 119 107 117 125 120 124 122 117 121 119 138 150 153 153 151 152
1 358 352 347 342 342 344 344 343 339 334 330 325 318 312 303 296 290 288 287 288 288 289 292 294 294 292 291 287 289 281 266 261 248 226 190 197 202 198 195 188 184 182 181 183 183 178 172 170 168 165 166 179 188 194 206 205 192 114 278 246 266 270 343 66 73 90 136 134 145 135 112 123 121 129 128 112 118 105 110 119 116 125 140 149 150 152 157
4 2 357 352 344 339 335 334 336 334 332 329 324 319 311 304 297 292 288 285 287 288 291 295 296 296 295 292 292 294 289 284 270 250 215 193 202 195 197 198 188 185 187 185 182 183 182 175 173 171 165 162 176 182 191 192 195 202 197 299 255 256 327 78 100 89 125 147 133 132 131 109 121 130 138 133 114 114 116 129 128 124 132 143 150 153 156 161
5 6 4 0 352 345 337 331 330 327 327 325 322 317 310 305 298 293 291 288 288 289 293 297 296 298 297 292 295 298 308 310 276 248 221 209 204 195 197 198 190 185 188 186 180 177 177 173 172 172 166 159 187 185 196 193 184 180 182 249 239 166 19 108 113 113 137 146 133 129 129 114 122 133 142 137 121 115 155 156 153 146 146 149 154 157 160 165
4 8 9 7 2 356 348 339 333 327 321 318 320 314 309 306 299 296 295 295 294 292 295 296 297 297 297 295 293 296 329 345 259 215 208 204 198 197 197 195 189 183 186 185 176 170 170 170 165 165 168 157 178 186 223 209 193 167 205 242 207 154 120 142 126 128 143 143 130 130 132 130 122 123 149 148 136 180 170 166 166 158 155 156 158 160 164 169
3 7 10 11 9 5 360 353 344 333 321 316 316 312 310 305 300 299 296 303 300 294 295 292 295 295 297 295 290 286 260 143 141 156 175 195 192 194 195 191 184 180 184 181 172 165 163 167 162 156 160 157 185 198 236 215 202 203 259 240 204 173 135 146 138 134 147 141 122 127 132 133 114 110 153 158 136 167 169 167 165 160 159 160 159 163 168 171
360 3 7 10 11 9 5 1 355 344 328 317 316 315 311 305 301 301 298 306 302 294 292 287 293 293 298 293 285 283 258 247 157 148 157 190 186 187 190 186 180 179 182 179 172 164 159 164 167 158 143 152 207 214 250 225 201 202 277 236 150 134 119 139 142 138 146 141 127 123 118 116 93 114 153 145 133 159 165 164 162 159 158 158 159 166 171 174
356 356 0 5 8 7 3 1 357 350 337 322 317 315 312 307 302 303 301 303 301 296 286 283 290 289 296 289 283 296 270 239 165 158 146 190 185 181 185 182 179 181 182 181 176 167 164 166 170 165 149 200 200 219 249 233 199 203 198 119 98 102 117 134 138 140 143 140 136 109 89 71 61 114 141 126 146 159 162 160 158 157 158 159 162 169 173 176
353 351 353 358 2 2 360 357 352 347 341 330 318 310 310 309 304 304 300 303 303 292 282 280 285 284 289 277 281 303 254 194 171 177 169 197 182 177 183 183 181 183 183 182 179 173 171 171 174 170 168 211 210 265 248 221 205 194 143 110 99 104 124 129 127 136 139 136 136 102 85 106 94 116 111 131 154 160 159 157 158 159 160 162 166 173 176 179
352 349 348 350 354 356 356 353 348 343 338 331 320 303 303 304 302 301 298 304 299 285 283 281 280 279 278 260 252 274 205 182 186 190 180 179 166 175 184 187 185 186 187 185 182 179 179 180 180 178 174 207 228 281 265 220 175 145 115 96 104 113 116 122 116 128 131 127 138 119 110 149 123 110 99 148 156 159 156 155 159 161 163 166 170 177 180 183
351 348 346 345 349 351 353 351 347 344 337 331 318 299 295 297 298 297 298 303 293 288 290 286 284 274 269 250 227 207 177 169 176 176 177 180 172 172 182 192 192 191 192 190 186 181 181 181 181 186 204 328 278 294 286 178 146 125 111 96 101 110 106 116 113 124 123 109 140 125 107 141 109 49 132 153 157 161 156 154 162 164 167 170 173 180 184 187
350 347 344 344 345 348 351 350 349 346 339 329 314 297 288 289 291 294 301 302 289 295 300 297 289 272 267 254 241 222 177 163 167 170 175 181 195 197 187 193 197 200 199 195 189 181 176 176 180 185 208 330 304 315 319 147 136 120 110 103 105 105 100 111 106 125 118 98 141 125 99 158 156 20 146 156 158 161 158 156 163 167 171 173 176 182 187 191
350 346 343 343 343 345 349 351 351 347 339 325 310 294 285 287 293 297 306 302 286 299 314 311 294 283 273 259 244 219 203 186 174 175 176 178 192 202 205 200 198 206 205 200 195 185 175 172 182 191 269 309 315 1 127 134 130 116 93 101 122 113 106 120 110 139 90 133 149 135 122 209 191 88 149 160 160 157 156 158 165 169 173 176 180 185 190 194
350 346 342 342 341 343 348 351 352 348 340 327 311 294 288 296 298 301 308 301 285 298 322 320 300 297 271 258 226 206 213 197 181 180 179 184 191 198 207 207 201 199 199 201 202 195 184 175 186 222 279 284 283 101 108 105 113 112 87 89 115 145 189 146 144 188 95 151 169 155 163 192 188 154 155 166 164 157 156 161 167 170 175 179 184 189 193 197
349 346 342 341 340 342 347 352 353 350 342 331 320 305 299 309 306 307 306 296 287 298 320 313 298 310 288 274 237 201 208 198 188 186 191 204 214 211 205 204 203 196 193 192 192 196 194 196 215 256 288 282 257 221 62 40 37 89 113 118 48 142 168 142 165 195 179 159 196 306 136 161 176 170 166 171 169 161 159 164 168 172 177 181 186 192 196 199
348 346 342 339 339 342 348 352 353 349 342 337 337 334 328 334 321 310 301 292 291 298 314 305 295 313 302 282 216 191 200 201 192 187 205 220 232 227 208 202 200 193 190 183 170 173 188 205 228 256 275 276 148 126 82 41 9 25 102 141 164 146 157 148 167 210 224 144 202 284 143 116 166 182 172 172 174 166 161 165 171 174 178 183 189 195 198 201
346 345 341 338 338 342 348 353 352 347 342 344 355 13 13 5 348 321 301 290 291 299 302 294 295 299 285 254 167 168 190 210 213 213 219 218 231 241 211 196 192 189 181 171 165 165 178 201 223 255 258 189 128 120 95 100 223 266 74 110 162 143 148 154 159 211 204 151 182 239 152 119 156 174 165 170 175 169 165 168 172 176 180 185 191 196 200 204
343 344 340 337 337 342 349 353 352 347 345 349 3 35 34 20 358 318 295 290 290 306 302 286 291 307 261 232 204 162 10 244 230 238 229 208 207 208 197 189 182 176 162 155 167 171 182 211 197 224 261 113 129 128 126 198 191 168 146 108 119 128 152 171 159 181 176 160 167 152 148 124 137 154 155 167 176 174 171 172 174 178 181 186 192 196 201 205
340 341 339 337 337 341 348 352 352 353 353 354 3 39 47 21 349 294 291 289 273 275 300 266 234 280 270 268 284 296 302 216 221 234 209 186 164 144 155 168 165 159 148 140 170 178 179 197 122 135 220 181 161 159 170 195 166 144 145 107 121 125 151 180 155 160 161 152 158 157 154 143 139 154 153 164 179 182 177 174 177 181 183 187 192 196 201 204
336 338 337 336 336 340 348 350 351 4 8 3 0 18 37 10 352 295 310 295 281 280 282 268 259 269 281 288 295 312 277 191 208 205 179 167 154 143 136 146 150 147 143 139 163 185 173 176 197 182 197 197 185 182 170 151 129 132 133 116 129 127 120 177 145 155 161 150 161 155 136 149 151 160 155 154 176 186 183 178 179 184 186 188 192 196 200 205
333 335 336 336 336 341 347 346 349 13 19 15 18 24 22 12 4 310 318 304 297 300 285 270 264 267 277 284 285 318 331 203 201 183 172 165 153 147 153 154 143 132 145 140 128 159 161 181 221 202 202 200 185 171 143 98 86 110 135 143 138 131 132 153 153 162 170 130 151 143 128 155 162 160 152 128 159 184 186 183 184 187 189 191 194 196 199 205
331 332 334 336 337 340 342 345 346 5 20 29 42 41 25 9 345 300 310 303 303 309 293 259 253 261 271 274 268 285 304 239 196 182 176 171 165 161 164 149 129 128 113 108 99 72 146 219 233 210 197 177 115 111 119 108 98 86 111 137 134 131 114 109 143 141 116 24 148 149 141 161 162 146 130 105 145 181 186 198 195 191 191 194 196 196 199 204
330 329 332 335 338 338 339 342 338 353 22 34 40 33 16 4 351 309 288 280 298 307 295 250 244 259 270 272 248 212 211 219 195 185 182 179 180 174 154 120 110 126 93 113 147 139 176 238 225 187 164 141 96 93 112 106 97 93 121 132 148 171 151 131 136 87 46 11 148 146 140 156 151 118 115 159 195 185 191 220 215 199 196 196 198 198 199 202
327 326 329 333 337 337 334 334 330 350 20 30 31 22 10 2 360 337 307 277 296 308 301 241 231 251 259 256 200 183 180 201 199 182 189 186 177 166 156 124 106 123 150 157 151 160 221 241 164 136 138 143 129 128 131 129 206 242 169 157 156 181 183 106 128 110 72 50 109 134 132 175 170 149 164 192 212 195 194 214 228 214 206 201 201 201 202 203
327 324 325 331 336 333 329 328 322 339 0 19 21 12 3 354 345 335 332 341 304 301 321 179 206 232 222 177 178 180 160 198 203 176 188 193 178 154 143 136 123 167 185 148 136 172 252 243 151 113 100 130 131 161 185 163 194 285 224 192 169 172 148 112 130 135 113 145 183 165 156 214 187 174 175 177 188 190 187 203 222 222 214 207 205 204 206 207
327 320 322 327 332 328 321 318 314 326 346 350 359 359 349 340 332 321 332 40 343 296 345 143 176 186 198 207 185 169 105 208 194 178 183 195 191 161 138 136 113 179 178 145 140 187 261 230 144 129 118 125 137 202 227 171 148 277 243 191 163 157 137 133 146 152 144 174 193 193 178 195 196 188 184 173 185 189 180 195 210 219 217 211 208 208 209 210
325 317 318 320 326 323 311 311 306 306 319 321 333 337 328 325 323 317 341 42 346 301 15 156 179 156 191 214 173 151 103 174 162 180 188 187 191 172 161 181 104 159 172 127 166 234 207 112 103 121 114 117 161 220 232 167 143 242 246 159 148 153 151 153 155 154 137 102 134 199 159 90 250 200 178 170 187 204 196 199 207 214 215 211 210 211 210 212
323 313 312 316 323 320 307 302 295 295 300 307 321 320 316 317 315 329 46 72 310 308 312 212 206 181 166 175 177 158 102 157 142 189 194 179 178 168 161 193 166 177 176 132 201 259 194 166 168 148 129 156 198 213 203 173 170 251 207 135 145 150 149 154 146 127 121 100 138 204 172 99 275 193 151 166 191 214 210 204 206 208 209 206 208 211 211 213
320 308 310 314 318 320 306 287 285 294 289 293 308 314 318 316 314 11 78 85 306 303 255 238 208 203 151 144 177 182 68 151 134 172 184 174 174 165 151 189 163 156 184 139 197 252 247 216 200 154 146 198 214 207 187 175 206 230 101 93 89 83 75 76 86 89 93 82 183 195 184 132 218 191 155 174 198 214 212 203 204 207 205 199 199 205 209 211
315 306 310 313 318 322 303 285 287 287 286 289 295 314 326 318 351 61 56 28 337 294 289 267 268 212 115 118 163 340 62 150 120 136 157 162 167 153 125 168 150 128 61 30 204 243 262 253 231 161 186 203 198 200 189 165 155 113 92 84 69 57 51 46 16 50 78 322 226 189 188 126 103 215 187 185 203 207 201 195 198 203 202 195 191 194 202 207
312 306 310 313 320 322 306 301 296 282 284 288 297 320 332 316 67 80 86 316 24 320 341 265 282 49 98 123 127 341 60 59 111 128 134 125 141 98 76 132 143 83 22 353 296 284 293 269 238 211 209 195 154 175 195 164 147 98 89 108 84 39 24 52 3 15 95 271 259 178 171 111 111 240 212 218 267 201 190 192 190 191 194 194 188 184 191 201
312 306 309 311 311 314 316 314 296 281 281 286 304 319 336 64 34 72 260 328 353 258 250 231 255 85 101 98 115 206 153 80 130 130 134 118 130 174 142 159 177 85 354 275 266 330 305 239 230 225 210 183 145 85 51 170 155 98 106 116 90 47 7 62 348 325 169 261 298 152 149 115 257 234 207 236 260 253 213 199 188 185 189 192 189 182 181 192
309 303 304 305 305 313 321 307 283 282 286 291 302 314 73 81 27 243 262 318 248 226 212 171 90 108 114 88 48 227 158 171 214 122 104 97 109 197 230 203 161 135 204 209 232 345 287 271 262 220 219 186 160 130 134 176 156 135 140 129 107 118 98 99 188 281 245 267 336 133 154 245 277 206 263 258 249 240 226 206 190 185 187 190 191 185 179 184
304 299 299 301 315 322 313 288 280 287 299 302 302 19 72 67 277 262 282 261 251 284 4 74 83 66 79 131 233 221 137 300 213 102 76 61 83 179 266 270 167 128 123 166 203 172 186 264 233 189 209 184 169 168 167 156 154 166 163 138 139 156 146 161 188 191 204 224 36 100 172 242 231 198 301 299 70 77 220 197 182 181 187 188 190 189 182 183
297 290 292 307 328 316 283 279 286 290 309 317 3 73 71 40 260 278 267 255 272 329 349 26 84 68 25 310 307 2 129 321 32 77 57 83 124 176 230 254 216 133 119 163 244 179 162 247 247 242 204 162 169 182 152 134 150 200 158 116 153 185 153 135 164 157 141 126 79 102 214 245 186 299 307 97 83 69 130 161 161 171 182 182 185 190 188 187
290 278 287 318 316 297 289 294 286 295 316 345 58 64 82 228 230 202 218 261 308 357 19 15 56 70 2 327 337 355 58 52 58 62 32 70 115 232 221 255 239 159 147 172 219 183 121 269 275 302 264 187 184 176 157 154 158 149 139 159 196 162 129 115 74 40 97 110 90 141 248 281 30 320 281 113 86 71 98 140 155 169 179 177 179 189 191 190
282 281 296 320 296 276 291 299 325 329 324 33 77 73 218 231 209 193 248 307 297 55 86 59 38 76 36 335 322 326 20 36 42 64 47 31 1 307 284 286 252 178 185 197 215 209 156 275 287 251 231 240 193 156 150 164 145 124 181 191 154 61 83 105 102 29 52 103 222 318 299 268 101 311 229 119 89 71 73 122 153 168 178 176 178 187 192 194
292 287 298 327 294 274 283 290 355 334 335 54 54 306 211 259 229 215 286 315 291 54 80 102 122 154 155 133 281 303 14 48 17 65 95 57 335 219 345 298 255 255 259 193 200 243 144 268 293 241 203 270 154 128 116 126 122 130 171 161 128 125 173 109 119 137 104 113 230 311 333 278 174 207 217 136 114 95 72 96 147 163 178 181 181 186 190 194
320 304 342 11 321 280 265 278 316 333 5 61 33 295 195 263 276 301 329 329 129 69 71 123 128 110 123 132 189 301 44 110 131 100 108 93 20 183 93 255 262 304 337 154 170 251 108 134 290 275 217 5 28 116 157 186 23 48 126 140 107 125 163 155 133 153 136 137 198 121 341 271 203 222 211 144 131 120 107 121 149 168 184 186 187 189 192 194
340 3 40 14 346 206 208 263 308 353 30 78 194 239 270 264 298 343 4 21 118 63 80 194 106 96 107 121 159 106 56 85 118 105 108 128 165 277 283 230 273 310 13 103 135 186 70 117 247 291 326 124 171 187 177 169 138 101 133 159 131 72 127 127 81 63 121 135 156 124 274 263 241 268 212 142 127 127 136 138 116 164 192 191 192 193 194 196
3 39 37 25 43 119 169 279 331 42 59 310 222 235 289 303 306 343 12 45 63 61 92 136 116 112 123 94 46 54 62 47 64 87 104 139 119 290 293 279 265 296 13 45 41 171 134 133 204 293 348 180 229 251 194 172 156 152 161 175 172 135 120 115 95 315 92 121 151 152 201 267 275 285 188 131 125 128 136 127 99 107 156 178 193 197 197 199
22 39 359 18 46 104 86 354 352 76 146 284 305 260 284 336 323 339 6 35 50 50 59 82 104 99 109 123 351 62 89 53 38 70 116 161 149 172 296 323 314 278 108 61 298 230 168 109 136 269 237 211 258 285 213 166 140 134 144 160 159 137 123 132 165 215 105 93 111 117 118 286 278 288 114 124 127 122 121 113 97 91 90 101 142 183 190 196
13 23 354 9 33 125 76 347 334 0 267 279 310 282 274 326 357 1 6 18 25 37 45 40 71 70 81 171 106 83 94 73 61 81 208 196 152 202 318 349 354 71 105 56 292 235 122 85 104 271 304 302 299 318 8 79 102 102 61 80 140 146 131 138 157 153 128 142 129 83 56 245 228 300 102 117 117 109 103 100 98 91 87 96 108 142 172 185
10 84 95 17 339 194 145 301 256 312 292 309 349 339 312 346 35 26 10 0 0 65 83 17 340 75 69 121 87 84 114 100 100 79 155 176 126 14 12 22 32 60 49 316 234 183 40 64 96 102 19 349 342 8 359 357 69 108 67 9 118 114 102 106 108 80 101 183 159 128 195 211 145 125 112 113 110 101 97 94 94 91 92 105 116 134 160 174
29 146 112 9 292 200 195 204 176 226 297 343 3 337 333 5 42 37 32 10 14 65 116 5 295 92 55 59 60 31 35 90 120 47 42 300 265 11 26 29 34 32 3 319 260 207 94 74 90 124 137 169 172 182 221 222 185 67 80 64 106 117 118 123 110 87 123 191 157 143 179 155 134 141 132 124 118 108 104 100 95 92 100 115 123 129 144 153
62 137 332 3 43 190 228 282 162 238 280 9 1 328 9 10 8 28 37 34 21 34 84 65 304 76 48 45 51 21 6 26 71 70 51 347 292 294 18 23 22 17 11 4 2 96 107 74 113 141 147 183 195 222 240 170 129 121 94 88 102 122 117 109 110 142 159 152 171 221 169 143 151 158 145 140 134 123 120 112 103 101 110 120 121 116 117 121
54 79 345 3 354 277 298 354 15 344 221 135 75 310 8 0 318 15 29 37 21 22 55 50 22 52 62 54 59 26 358 360 28 39 354 299 282 293 357 22 18 12 11 17 25 67 107 35 1 126 113 179 219 249 267 106 115 128 116 118 132 110 108 107 129 185 149 129 214 241 167 152 163 163 150 147 142 133 132 122 115 117 120 123 120 104 92 91
51 109 96 39 332 248 20 345 354 7 179 128 83 2 18 36 40 26 4 354 16 23 49 47 11 19 86 101 101 33 2 7 12 5 315 314 328 339 357 7 7 9 12 23 29 63 117 29 330 50 57 37 4 323 324 94 99 74 73 87 64 17 110 117 129 164 141 142 205 189 166 160 158 153 150 153 153 144 135 125 121 121 118 119 116 101 91 92
65 114 106 22 299 230 274 305 321 36 79 80 62 42 60 63 55 25 339 0 9 9 36 79 350 337 64 111 97 65 26 48 12 336 311 343 8 23 15 346 336 0 14 34 30 52 110 13 316 294 58 34 16 0 5 82 93 60 47 53 50 47 85 104 106 101 103 122 154 150 149 145 142 148 151 152 148 137 127 123 121 119 115 112 109 103 101 101
68 76 10 349 316 302 322 323 341 87 46 33 63 37 55 70 52 8 21 38 15 334 18 92 54 348 38 90 85 83 157 152 160 303 273 82 22 31 71 275 282 347 13 34 12 22 65 354 312 9 60 16 8 10 355 26 93 79 47 34 42 53 65 80 105 100 83 90 119 130 132 126 138 143 139 142 141 132 125 124 121 119 117 112 108 106 107 107
74 48 11 12 358 342 343 344 53 94 33 22 98 134 46 83 94 88 48 41 57 34 56 138 139 23 39 67 85 97 273 200 195 280 276 183 80 80 107 192 223 327 5 20 11 10 48 33 334 33 62 343 348 9 340 329 77 74 39 18 20 36 76 88 118 133 125 124 123 129 143 156 150 137 133 139 140 131 128 128 123 122 120 116 112 109 109 110
76 31 356 6 358 349 357 356 29 75 81 309 171 141 65 226 236 114 78 30 36 59 98 162 152 63 44 56 73 359 310 295 340 13 72 128 101 94 93 77 75 69 19 11 44 38 102 112 39 57 80 320 329 355 338 338 56 53 352 342 347 8 137 114 12 45 126 134 136 154 165 146 138 135 133 140 140 134 133 133 130 128 123 118 117 116 114 113
Height
1506 1505 1504 1503 1503 1502 1502 1501 1500 1500 1499 1498 1498 1497 1496 1496 1496 1496 1496 1495 1495 1495 1495 1494 1494 1493 1493 1493 1493 1492 1492 1491 1491 1490 1488 1488 1491 1493 1494 1495 1496 1497 1498 1499 1501 1503 1504 1506 1508 1510 1512 1513 1516 1517 1518 1519 1519 1520 1522 1525 1527 1523 1520 1515 1513 1514 1514 1516 1517 1518 1520 1520 1524 1525 1526 1528 1530 1531 1532 1534 1535 1535 1535 1538 1539 1541 1544 1546
1505 1504 1503 1502 1502 1501 1501 1500 1500 1499 1498 1498 1497 1497 1496 1496 1495 1495 1495 1495 1494 1494 1494 1494 1493 1492 1492 1492 1492 1491 1491 1490 1490 1487 1487 1488 1490 1491 1492 1494 1495 1496 1496 1498 1499 1501 1502 1504 1507 1509 1511 1514 1515 1517 1518 1518 1519 1520 1521 1525 1524 1518 1515 1512 1512 1512 1513 1516 1516 1518 1520 1521 1524 1525 1526 1529 1532 1533 1534 1535 1536 1536 1537 1540 1542 1544 1546 1547
1505 1504 1503 1502 1501 1500 1500 1499 1499 1498 1498 1497 1497 1496 1496 1495 1495 1495 1494 1494 1494 1493 1493 1493 1492 1492 1491 1491 1491 1490 1490 1489 1488 1486 1486 1488 1488 1489 1491 1492 1494 1495 1496 1498 1500 1502 1503 1504 1507 1509 1511 1514 1515 1517 1517 1517 1518 1518 1521 1526 1520 1514 1513 1512 1512 1512 1514 1515 1515 1518 1521 1522 1525 1525 1527 1529 1533 1534 1535 1536 1536 1537 1538 1540 1543 1545 1547 1548
1506 1504 1503 1502 1501 1500 1499 1498 1498 1497 1497 1496 1496 1495 1495 1494 1494 1494 1494 1493 1493 1492 1492 1492 1491 1491 1490 1490 1490 1490 1489 1489 1486 1484 1485 1486 1487 1488 1489 1491 1493 1495 1497 1499 1501 1504 1505 1506 1508 1509 1512 1514 1515 1516 1517 1516 1517 1517 1519 1522 1516 1512 1514 1513 1513 1513 1514 1516 1516 1519 1521 1524 1525 1526 1528 1529 1533 1536 1535 1535 1535 1535 1537 1540 1543 1545 1547 1549
1505 1504 1503 1502 1501 1500 1498 1497 1497 1496 1496 1495 1495 1495 1494 1494 1493 1493 1493 1493 1492 1492 1491 1491 1491 1490 1490 1490 1490 1489 1490 1489 1484 1483 1485 1485 1486 1487 1488 1490 1493 1495 1497 1500 1502 1504 1505 1507 1508 1510 1512 1514 1515 1516 1515 1514 1515 1516 1516 1515 1512 1513 1514 1513 1513 1514 1516 1517 1517 1519 1522 1524 1526 1527 1529 1529 1532 1534 1534 1534 1535 1535 1536 1539 1543 1546 1548 1550
1505 1504 1503 1502 1501 1500 1499 1497 1497 1496 1495 1495 1494 1494 1493 1493 1493 1493 1492 1492 1492 1491 1491 1490 1490 1490 1489 1489 1489 1489 1489 1487 1484 1484 1485 1484 1485 1486 1488 1490 1493 1495 1496 1499 1501 1503 1504 1506 1508 1510 1512 1513 1515 1515 1514 1513 1514 1517 1515 1512 1512 1512 1513 1514 1514 1515 1517 1518 1520 1521 1523 1524 1526 1529 1531 1531 1532 1533 1534 1536 1537 1538 1539 1540 1544 1546 1548 1550
1505 1504 1503 1502 1501 1500 1499 1498 1497 1495 1494 1494 1493 1493 1493 1492 1492 1492 1491 1491 1491 1490 1490 1489 1489 1489 1489 1489 1488 1488 1488 1485 1484 1485 1485 1484 1485 1486 1487 1490 1493 1494 1496 1498 1500 1502 1503 1505 1507 1508 1511 1514 1514 1513 1512 1512 1512 1515 1515 1512 1512 1513 1513 1514 1513 1515 1517 1519 1522 1523 1525 1526 1528 1530 1532 1533 1533 1534 1537 1538 1539 1541 1542 1543 1546 1547 1549 1551
1504 1504 1503 1502 1501 1500 1499 1498 1496 1495 1494 1493 1492 1492 1492 1491 1491 1491 1491 1490 1490 1489 1489 1488 1488 1488 1488 1488 1487 1487 1487 1485 1485 1485 1485 1485 1485 1485 1487 1489 1492 1494 1495 1498 1499 1501 1502 1504 1506 1508 1511 1512 1512 1512 1511 1512 1513 1514 1514 1513 1513 1514 1515 1515 1514 1515 1517 1519 1522 1524 1526 1528 1530 1531 1532 1534 1534 1535 1537 1539 1541 1543 1545 1546 1547 1549 1551 1553
1504 1503 1502 1501 1501 1500 1498 1497 1496 1495 1494 1492 1491 1491 1491 1490 1490 1490 1490 1489 1489 1489 1488 1488 1488 1487 1488 1487 1487 1487 1484 1484 1484 1485 1486 1485 1485 1486 1488 1489 1492 1494 1495 1498 1500 1501 1503 1504 1506 1507 1510 1510 1511 1510 1509 1513 1513 1511 1512 1513 1514 1515 1516 1517 1516 1516 1518 1520 1522 1525 1527 1529 1530 1531 1534 1535 1534 1536 1538 1540 1542 1544 1546 1547 1548 1550 1552 1553
1503 1502 1501 1501 1500 1499 1498 1497 1495 1494 1493 1492 1491 1490 1490 1489 1489 1489 1489 1489 1488 1488 1487 1487 1487 1487 1487 1487 1487 1486 1483 1483 1484 1485 1486 1486 1486 1487 1488 1490 1491 1493 1495 1497 1499 1501 1503 1504 1506 1507 1509 1510 1511 1509 1508 1511 1510 1508 1511 1514 1515 1517 1517 1518 1518 1518 1519 1521 1523 1525 1528 1530 1530 1532 1535 1536 1535 1537 1539 1541 1544 1545 1547 1549 1550 1551 1553 1554
1502 1501 1500 1499 1499 1498 1497 1496 1494 1493 1492 1491 1490 1489 1488 1488 1488 1488 1488 1488 1487 1487 1486 1486 1486 1486 1486 1486 1486 1485 1482 1483 1484 1484 1486 1487 1487 1488 1489 1490 1492 1494 1495 1497 1499 1501 1503 1505 1507 1508 1509 1510 1510 1509 1507 1507 1507 1508 1511 1515 1518 1518 1519 1520 1520 1521 1521 1523 1525 1524 1528 1532 1532 1533 1535 1536 1536 1537 1539 1542 1545 1547 1548 1550 1551 1552 1554 1555
1501 1500 1499 1498 1498 1497 1496 1495 1493 1492 1491 1490 1489 1488 1487 1487 1487 1487 1487 1487 1487 1486 1486 1486 1486 1485 1486 1485 1484 1482 1482 1482 1483 1484 1486 1487 1488 1489 1490 1491 1493 1494 1496 1497 1500 1501 1504 1506 1507 1509 1510 1510 1510 1509 1508 1507 1507 1510 1511 1517 1522 1521 1522 1523 1522 1523 1523 1526 1526 1525 1533 1537 1534 1534 1535 1536 1537 1538 1539 1542 1545 1548 1549 1551 1552 1553 1555 1556
1500 1499 1498 1498 1497 1496 1495 1494 1492 1491 1490 1489 1488 1487 1487 1486 1486 1486 1486 1486 1486 1486 1486 1485 1485 1485 1485 1484 1481 1481 1481 1481 1482 1484 1485 1486 1488 1489 1490 1492 1493 1495 1497 1499 1501 1502 1504 1506 1507 1509 1509 1510 1510 1510 1510 1508 1509 1512 1512 1518 1525 1527 1527 1524 1523 1525 1524 1527 1526 1526 1540 1543 1535 1534 1536 1536 1538 1539 1541 1543 1546 1548 1550 1552 1553 1554 1555 1556
1499 1498 1497 1497 1496 1495 1494 1493 1492 1490 1489 1488 1487 1486 1486 1486 1486 1486 1486 1486 1486 1486 1485 1485 1485 1485 1484 1482 1479 1480 1480 1481 1482 1484 1485 1486 1487 1489 1490 1491 1493 1494 1497 1499 1502 1503 1505 1506 1507 1508 1508 1509 1509 1509 1510 1510 1511 1514 1516 1520 1526 1532 1532 1526 1524 1526 1526 1528 1526 1527 1540 1542 1535 1534 1536 1538 1539 1539 1542 1544 1546 1549 1550 1552 1553 1554 1555 1557
1499 1497 1496 1496 1495 1494 1493 1492 1491 1489 1488 1486 1486 1485 1485 1485 1485 1485 1486 1485 1485 1485 1485 1485 1484 1484 1483 1480 1479 1479 1480 1481 1483 1484 1485 1486 1487 1488 1489 1491 1493 1494 1497 1499 1501 1504 1506 1507 1507 1508 1508 1508 1509 1511 1513 1514 1514 1515 1522 1529 1530 1532 1533 1528 1525 1526 1527 1528 1527 1530 1539 1540 1536 1535 1536 1538 1540 1539 1542 1545 1547 1549 1551 1552 1554 1554 1556 1557
1498 1497 1495 1495 1494 1493 1492 1491 1490 1489 1487 1486 1485 1485 1485 1485 1485 1485 1485 1485 1485 1485 1485 1484 1484 1484 1483 1479 1478 1479 1480 1482 1483 1484 1485 1486 1486 1487 1489 1490 1493 1494 1497 1499 1501 1503 1506 1507 1507 1508 1507 1508 1509 1512 1516 1520 1521 1518 1522 1531 1532 1531 1533 1531 1528 1526 1526 1528 1529 1532 1538 1540 1536 1535 1536 1538 1540 1541 1542 1545 1547 1549 1551 1552 1554 1555 1556 1557
1498 1496 1495 1494 1493 1492 1491 1490 1489 1488 1486 1485 1485 1485 1484 1484 1484 1484 1484 1484 1484 1484 1484 1484 1484 1484 1481 1478 1478 1479 1481 1482 1482 1483 1484 1485 1486 1486 1488 1490 1492 1495 1496 1499 1502 1503 1505 1506 1507 1508 1507 1508 1509 1511 1522 1531 1529 1524 1523 1528 1529 1528 1531 1533 1531 1527 1526 1528 1531 1532 1535 1537 1534 1533 1536 1538 1540 1542 1543 1545 1547 1549 1551 1552 1554 1555 1556 1557
1497 1496 1494 1493 1492 1491 1491 1490 1488 1487 1486 1485 1485 1485 1484 1484 1484 1484 1484 1484 1484 1484 1484 1483 1483 1484 1480 1478 1479 1480 1480 1481 1482 1482 1483 1484 1485 1486 1487 1489 1491 1494 1496 1499 1501 1503 1505 1506 1506 1508 1508 1509 1510 1512 1524 1529 1525 1525 1525 1527 1529 1529 1530 1531 1530 1527 1526 1529 1532 1534 1535 1535 1533 1533 1536 1538 1541 1542 1543 1545 1546 1548 1551 1553 1554 1555 1556 1557
1497 1495 1494 1493 1492 1491 1490 1489 1488 1487 1486 1485 1485 1485 1484 1484 1484 1483 1483 1483 1483 1483 1482 1482 1482 1482 1481 1479 1479 1480 1480 1480 1481 1482 1483 1484 1485 1486 1488 1490 1491 1494 1496 1499 1502 1502 1504 1506 1508 1511 1511 1510 1510 1511 1515 1516 1515 1519 1521 1523 1528 1531 1531 1528 1526 1524 1525 1530 1533 1534 1537 1536 1535 1535 1536 1539 1541 1543 1544 1545 1547 1549 1550 1552 1554 1555 1556 1557
1496 1495 1493 1492 1492 1491 1490 1489 1488 1487 1486 1486 1485 1485 1485 1484 1484 1483 1483 1482 1481 1480 1480 1480 1479 1479 1479 1478 1478 1479 1479 1480 1481 1481 1483 1484 1485 1486 1488 1490 1492 1494 1496 1498 1502 1502 1503 1508 1510 1511 1510 1508 1508 1508 1509 1510 1511 1514 1518 1522 1525 1529 1531 1527 1525 1524 1523 1530 1535 1533 1535 1537 1536 1537 1537 1540 1542 1543 1544 1545 1546 1548 1550 1551 1553 1555 1556 1557
1495 1494 1493 1492 1491 1490 1490 1489 1488 1488 1487 1486 1486 1485 1485 1485 1485 1485 1483 1479 1478 1478 1478 1478 1478 1478 1478 1478 1478 1479 1479 1479 1480 1481 1483 1484 1485 1486 1488 1490 1492 1495 1497 1498 1501 1501 1503 1509 1509 1507 1507 1505 1506 1507 1508 1509 1510 1512 1517 1522 1525 1528 1529 1526 1523 1524 1523 1529 1535 1533 1536 1538 1537 1537 1538 1539 1541 1543 1544 1545 1546 1548 1549 1551 1552 1554 1555 1556
1494 1493 1492 1491 1490 1490 1489 1488 1488 1488 1487 1487 1486 1486 1486 1486 1485 1485 1483 1480 1476 1476 1476 1476 1477 1477 1476 1477 1478 1478 1480 1479 1480 1482 1483 1484 1485 1486 1488 1490 1492 1496 1497 1498 1502 1504 1507 1508 1506 1505 1505 1505 1506 1507 1508 1510 1511 1513 1517 1522 1527 1527 1527 1527 1524 1524 1525 1531 1535 1534 1537 1540 1537 1538 1540 1540 1541 1541 1543 1545 1546 1547 1548 1550 1551 1553 1555 1556
1493 1492 1491 1490 1490 1489 1488 1488 1488 1487 1487 1487 1486 1486 1485 1485 1484 1483 1484 1481 1477 1474 1474 1475 1475 1475 1475 1476 1477 1477 1479 1479 1480 1481 1482 1484 1485 1486 1487 1489 1493 1496 1498 1500 1503 1508 1510 1506 1502 1503 1505 1505 1508 1509 1509 1511 1512 1514 1517 1522 1527 1525 1525 1529 1530 1529 1530 1532 1534 1534 1538 1541 1538 1540 1541 1541 1541 1541 1543 1544 1545 1547 1547 1548 1550 1552 1554 1555
1492 1491 1490 1490 1489 1488 1488 1487 1487 1487 1487 1487 1486 1486 1485 1485 1484 1483 1483 1482 1479 1474 1473 1473 1474 1474 1475 1475 1476 1477 1478 1479 1480 1480 1482 1484 1484 1486 1487 1489 1493 1497 1499 1501 1502 1506 1507 1503 1501 1503 1504 1505 1509 1510 1510 1512 1514 1514 1515 1517 1523 1522 1521 1525 1530 1532 1532 1534 1533 1534 1543 1545 1540 1542 1542 1541 1542 1542 1543 1544 1545 1546 1546 1548 1550 1551 1553 1554
1491 1490 1489 1489 1488 1487 1487 1487 1487 1487 1486 1486 1486 1485 1485 1484 1484 1483 1482 1483 1482 1475 1472 1473 1473 1474 1474 1475 1476 1476 1477 1478 1479 1480 1482 1483 1484 1486 1487 1489 1493 1498 1500 1501 1502 1505 1503 1500 1500 1503 1505 1506 1508 1510 1509 1511 1514 1515 1512 1510 1514 1517 1518 1523 1528 1532 1538 1542 1534 1533 1548 1550 1540 1540 1542 1541 1542 1542 1543 1543 1543 1545 1545 1547 1549 1550 1552 1553
1490 1489 1488 1488 1488 1487 1487 1486 1486 1486 1486 1486 1486 1485 1485 1484 1484 1483 1483 1487 1485 1476 1473 1474 1474 1474 1473 1474 1475 1476 1479 1479 1478 1480 1481 1483 1485 1485 1488 1490 1492 1496 1498 1499 1501 1502 1500 1499 1499 1502 1505 1506 1508 1510 1509 1509 1514 1516 1509 1504 1508 1513 1517 1523 1526 1531 1540 1542 1532 1529 1544 1549 1543 1540 1539 1540 1542 1542 1543 1542 1542 1543 1544 1545 1547 1548 1550 1552
1488 1488 1487 1488 1487 1487 1486 1485 1486 1486 1485 1486 1486 1485 1485 1484 1484 1482 1484 1493 1490 1477 1474 1475 1473 1473 1473 1474 1474 1477 1482 1480 1478 1481 1481 1483 1485 1485 1489 1492 1492 1495 1494 1497 1504 1502 1498 1498 1500 1502 1504 1507 1509 1509 1507 1506 1512 1514 1505 1503 1509 1512 1517 1521 1523 1530 1534 1534 1534 1532 1536 1545 1547 1541 1537 1539 1543 1544 1543 1542 1541 1542 1543 1543 1545 1547 1549 1550
1487 1487 1487 1487 1486 1486 1486 1485 1486 1485 1486 1486 1485 1485 1485 1483 1484 1482 1488 1501 1493 1476 1474 1474 1472 1473 1473 1474 1475 1476 1479 1478 1479 1482 1481 1483 1485 1484 1489 1491 1492 1494 1492 1498 1507 1502 1496 1498 1499 1501 1504 1508 1507 1505 1504 1504 1508 1509 1503 1503 1507 1510 1515 1518 1522 1529 1530 1534 1543 1539 1534 1544 1550 1542 1536 1539 1544 1545 1542 1540 1540 1540 1541 1542 1543 1545 1547 1549
1486 1486 1486 1486 1486 1485 1485 1485 1485 1485 1486 1485 1485 1485 1484 1483 1483 1482 1492 1500 1488 1474 1475 1473 1472 1474 1473 1474 1476 1475 1476 1477 1479 1481 1481 1483 1485 1485 1488 1489 1490 1493 1492 1496 1502 1499 1495 1495 1496 1498 1502 1504 1502 1500 1500 1502 1506 1504 1502 1505 1509 1514 1519 1523 1527 1530 1531 1539 1546 1541 1535 1543 1550 1545 1540 1541 1543 1541 1538 1537 1538 1538 1540 1541 1542 1544 1545 1547
1485 1485 1485 1485 1485 1485 1485 1485 1485 1485 1485 1484 1485 1484 1483 1483 1484 1490 1500 1497 1483 1476 1475 1473 1473 1474 1474 1476 1477 1476 1476 1478 1478 1479 1481 1483 1484 1485 1487 1488 1489 1492 1494 1495 1497 1496 1493 1493 1493 1495 1497 1497 1496 1497 1497 1499 1502 1501 1503 1510 1516 1522 1524 1530 1534 1532 1539 1546 1540 1535 1534 1538 1546 1545 1539 1538 1535 1532 1533 1536 1537 1538 1539 1540 1541 1542 1544 1545
1484 1484 1484 1484 1484 1484 1484 1484 1485 1484 1484 1484 1484 1483 1483 1484 1487 1497 1502 1490 1481 1480 1475 1474 1475 1474 1475 1477 1479 1478 1478 1478 1478 1479 1483 1484 1485 1486 1488 1490 1491 1494 1498 1498 1497 1496 1493 1493 1493 1490 1490 1491 1494 1497 1497 1498 1498 1500 1506 1512 1522 1533 1532 1536 1541 1539 1548 1550 1533 1529 1533 1537 1544 1543 1536 1532 1528 1527 1530 1533 1534 1536 1538 1539 1540 1542 1543 1544
1483 1483 1484 1484 1484 1484 1484 1484 1484 1483 1483 1483 1483 1482 1484 1488 1493 1498 1494 1484 1483 1482 1476 1475 1476 1475 1477 1478 1479 1480 1479 1480 1479 1480 1483 1485 1488 1488 1489 1492 1493 1499 1506 1503 1499 1497 1493 1491 1490 1487 1486 1488 1493 1499 1500 1501 1499 1502 1510 1515 1530 1547 1547 1551 1556 1550 1551 1546 1531 1529 1533 1539 1544 1539 1533 1531 1528 1527 1528 1529 1531 1533 1536 1538 1539 1541 1542 1543
1483 1483 1483 1484 1484 1483 1483 1483 1483 1483 1483 1482 1483 1482 1484 1493 1497 1494 1489 1485 1483 1478 1474 1475 1475 1475 1477 1478 1480 1479 1479 1481 1480 1480 1483 1485 1489 1490 1489 1489 1489 1495 1503 1503 1502 1500 1495 1490 1487 1487 1487 1484 1488 1497 1503 1506 1504 1506 1511 1515 1530 1548 1557 1565 1565 1558 1552 1542 1533 1530 1533 1540 1543 1536 1531 1529 1527 1527 1526 1527 1529 1531 1534 1537 1538 1540 1541 1543
1483 1483 1483 1483 1483 1483 1483 1483 1482 1482 1482 1481 1482 1482 1487 1497 1496 1489 1486 1484 1479 1475 1474 1475 1475 1476 1478 1479 1480 1479 1480 1482 1480 1481 1484 1486 1491 1492 1490 1489 1489 1490 1495 1500 1501 1500 1503 1499 1488 1485 1486 1482 1484 1489 1493 1498 1502 1505 1503 1506 1518 1529 1541 1554 1555 1551 1549 1544 1538 1536 1538 1544 1543 1536 1530 1527 1526 1525 1525 1525 1527 1531 1535 1537 1538 1540 1541 1542
1483 1483 1483 1483 1483 1483 1482 1482 1482 1481 1482 1481 1481 1484 1492 1498 1495 1489 1486 1481 1476 1475 1475 1475 1475 1479 1481 1480 1479 1478 1480 1483 1482 1483 1485 1488 1491 1492 1491 1489 1488 1489 1493 1500 1501 1498 1504 1500 1483 1479 1480 1478 1482 1483 1483 1491 1504 1505 1499 1504 1513 1510 1514 1530 1536 1534 1538 1546 1546 1543 1544 1543 1537 1532 1528 1525 1526 1525 1524 1525 1527 1532 1535 1536 1538 1539 1540 1542
1483 1483 1483 1483 1483 1482 1482 1482 1481 1481 1481 1480 1483 1489 1493 1492 1489 1487 1482 1476 1476 1476 1476 1477 1478 1482 1485 1483 1482 1480 1478 1480 1483 1485 1488 1491 1492 1492 1492 1489 1487 1488 1490 1496 1498 1497 1502 1495 1480 1478 1479 1476 1478 1479 1479 1487 1499 1504 1504 1507 1505 1497 1501 1519 1532 1531 1531 1544 1550 1546 1546 1542 1536 1533 1528 1526 1527 1525 1525 1526 1527 1532 1534 1535 1537 1538 1540 1542
1483 1483 1483 1483 1483 1482 1482 1482 1481 1482 1481 1481 1485 1490 1489 1485 1482 1481 1478 1474 1476 1475 1476 1483 1485 1486 1489 1488 1486 1483 1479 1481 1484 1486 1491 1495 1493 1492 1491 1488 1486 1486 1486 1489 1492 1492 1498 1495 1481 1478 1480 1475 1474 1477 1478 1479 1485 1498 1506 1501 1496 1499 1502 1511 1531 1540 1539 1549 1553 1547 1548 1546 1542 1540 1532 1528 1530 1528 1526 1526 1527 1531 1533 1534 1536 1537 1539 1541
1483 1483 1483 1483 1482 1482 1483 1482 1482 1482 1481 1482 1487 1489 1486 1483 1479 1477 1476 1474 1475 1474 1477 1484 1486 1487 1489 1489 1488 1484 1482 1484 1486 1488 1492 1495 1494 1491 1490 1488 1485 1484 1484 1486 1489 1488 1493 1497 1485 1476 1478 1477 1472 1478 1485 1482 1479 1485 1490 1488 1493 1508 1512 1512 1526 1538 1542 1555 1558 1550 1549 1546 1541 1539 1534 1531 1532 1530 1528 1527 1527 1529 1531 1532 1534 1536 1538 1540
1483 1483 1483 1483 1482 1482 1483 1483 1483 1482 1482 1485 1489 1488 1485 1482 1478 1476 1476 1474 1475 1475 1478 1483 1484 1485 1487 1487 1487 1485 1483 1485 1487 1489 1492 1495 1494 1490 1488 1488 1485 1484 1483 1483 1487 1487 1489 1497 1492 1478 1476 1477 1475 1479 1488 1488 1483 1480 1483 1486 1491 1499 1505 1510 1518 1522 1530 1550 1559 1555 1553 1545 1536 1534 1532 1531 1531 1530 1530 1529 1528 1528 1530 1531 1533 1535 1537 1539
1483 1482 1483 1483 1482 1482 1483 1483 1483 1483 1484 1487 1489 1487 1484 1482 1477 1475 1475 1474 1475 1475 1478 1481 1482 1484 1486 1486 1487 1485 1484 1486 1487 1489 1492 1493 1493 1489 1487 1488 1486 1484 1483 1483 1485 1487 1489 1497 1496 1483 1477 1480 1481 1481 1483 1484 1485 1486 1489 1492 1494 1497 1499 1506 1515 1517 1522 1541 1555 1557 1552 1543 1534 1531 1530 1529 1529 1529 1529 1529 1529 1529 1530 1531 1533 1535 1536 1538
1483 1483 1484 1483 1483 1483 1483 1483 1484 1485 1486 1487 1487 1485 1483 1481 1478 1476 1475 1474 1475 1475 1477 1479 1481 1482 1484 1485 1486 1485 1484 1487 1488 1489 1491 1491 1493 1491 1488 1487 1486 1484 1484 1484 1485 1486 1489 1494 1495 1488 1483 1483 1482 1478 1477 1478 1479 1483 1487 1489 1493 1497 1499 1508 1522 1524 1521 1529 1541 1542 1538 1537 1535 1529 1527 1528 1528 1528 1528 1529 1530 1531 1531 1532 1534 1535 1536 1537
1483 1484 1484 1484 1483 1483 1483 1485 1486 1486 1486 1485 1484 1483 1482 1480 1479 1478 1476 1475 1476 1476 1476 1478 1481 1483 1484 1484 1485 1485 1485 1488 1490 1490 1490 1490 1491 1491 1487 1485 1485 1484 1484 1485 1486 1485 1486 1491 1494 1490 1486 1484 1481 1477 1477 1477 1476 1478 1481 1484 1489 1490 1492 1502 1516 1524 1524 1526 1531 1532 1533 1536 1534 1527 1526 1528 1527 1528 1530 1530 1531 1532 1532 1533 1534 1535 1536 1537
1483 1484 1484 1484 1484 1484 1484 1486 1487 1486 1485 1483 1482 1482 1481 1480 1480 1479 1478 1477 1477 1477 1478 1480 1481 1482 1483 1483 1484 1485 1486 1489 1491 1490 1490 1490 1489 1488 1487 1484 1483 1483 1484 1485 1486 1484 1485 1492 1495 1490 1485 1482 1477 1476 1476 1476 1478 1480 1482 1485 1487 1486 1487 1492 1498 1509 1520 1526 1527 1530 1535 1537 1532 1527 1527 1528 1528 1529 1531 1531 1532 1532 1533 1534 1534 1535 1535 1536
1483 1484 1484 1484 1484 1484 1486 1488 1488 1487 1486 1484 1483 1482 1481 1480 1480 1480 1480 1480 1479 1479 1480 1482 1482 1482 1483 1483 1484 1486 1487 1490 1492 1490 1490 1490 1489 1487 1486 1484 1482 1483 1484 1484 1484 1483 1487 1495 1496 1494 1496 1495 1489 1486 1484 1479 1479 1483 1486 1487 1486 1486 1489 1493 1497 1503 1515 1525 1524 1521 1529 1536 1531 1527 1528 1528 1529 1530 1531 1532 1533 1533 1534 1535 1534 1535 1535 1536
1484 1484 1484 1484 1484 1484 1485 1486 1487 1487 1487 1485 1485 1484 1482 1482 1481 1482 1482 1481 1481 1481 1482 1483 1482 1482 1483 1483 1485 1487 1487 1488 1490 1490 1490 1490 1488 1486 1485 1484 1483 1483 1483 1483 1481 1481 1488 1496 1496 1496 1502 1506 1503 1499 1492 1486 1484 1485 1488 1488 1487 1488 1487 1491 1501 1506 1512 1524 1522 1515 1524 1535 1531 1528 1530 1529 1529 1531 1532 1533 1534 1535 1536 1536 1535 1535 1535 1535
1484 1484 1485 1484 1484 1485 1485 1485 1485 1486 1486 1486 1487 1486 1485 1484 1483 1482 1482 1482 1482 1481 1482 1483 1482 1482 1484 1485 1487 1490 1489 1488 1488 1489 1491 1490 1487 1486 1485 1484 1483 1483 1483 1482 1480 1481 1488 1496 1498 1497 1498 1499 1498 1494 1489 1486 1485 1486 1488 1488 1489 1490 1486 1488 1499 1503 1507 1520 1525 1519 1523 1531 1531 1530 1531 1530 1530 1531 1533 1534 1535 1536 1537 1536 1536 1536 1535 1536
1485 1486 1487 1487 1486 1485 1485 1485 1485 1485 1485 1486 1487 1488 1488 1487 1485 1483 1483 1483 1483 1483 1483 1484 1484 1485 1486 1487 1490 1492 1492 1490 1490 1491 1493 1491 1488 1487 1486 1484 1484 1483 1482 1481 1480 1481 1489 1496 1498 1496 1496 1496 1496 1493 1489 1487 1486 1486 1489 1490 1491 1491 1488 1488 1495 1499 1502 1514 1522 1521 1522 1526 1528 1528 1529 1530 1531 1531 1533 1534 1536 1537 1537 1537 1537 1537 1537 1536
1486 1488 1489 1489 1489 1488 1487 1486 1486 1486 1486 1486 1487 1489 1490 1489 1488 1488 1486 1484 1484 1484 1484 1486 1487 1488 1488 1488 1491 1494 1494 1493 1493 1494 1494 1492 1489 1488 1486 1485 1484 1483 1482 1482 1480 1482 1491 1497 1497 1493 1491 1492 1494 1492 1489 1488 1490 1493 1493 1492 1492 1492 1489 1490 1497 1501 1500 1500 1506 1514 1520 1523 1524 1526 1527 1529 1530 1531 1533 1535 1536 1538 1539 1538 1539 1538 1538 1538
1487 1488 1488 1489 1489 1489 1488 1487 1486 1487 1487 1487 1488 1490 1491 1491 1491 1491 1489 1487 1486 1487 1487 1489 1491 1491 1490 1488 1490 1496 1497 1497 1498 1497 1495 1493 1492 1491 1491 1490 1487 1484 1484 1484 1484 1486 1491 1495 1497 1494 1489 1489 1492 1493 1491 1490 1492 1496 1498 1496 1496 1497 1495 1495 1502 1504 1501 1500 1502 1510 1519 1522 1521 1523 1526 1528 1530 1532 1533 1535 1537 1539 1540 1540 1540 1540 1540 1540
1487 1488 1488 1488 1488 1488 1487 1487 1486 1487 1487 1488 1490 1491 1492 1492 1492 1491 1491 1491 1491 1490 1489 1491 1493 1492 1490 1488 1490 1495 1498 1497 1498 1497 1495 1495 1494 1494 1495 1495 1491 1488 1486 1486 1488 1489 1489 1493 1497 1492 1488 1491 1493 1492 1493 1493 1491 1495 1499 1499 1499 1501 1502 1503 1504 1505 1507 1510 1511 1513 1520 1524 1522 1521 1525 1528 1531 1532 1534 1536 1538 1539 1540 1541 1541 1541 1541 1541
1488 1489 1488 1489 1489 1488 1488 1488 1487 1487 1488 1489 1491 1492 1492 1493 1493 1492 1492 1493 1494 1493 1492 1494 1494 1493 1491 1491 1492 1495 1496 1496 1497 1496 1494 1494 1495 1494 1494 1494 1493 1491 1489 1490 1492 1491 1491 1496 1497 1492 1494 1499 1497 1495 1497 1495 1489 1492 1498 1501 1502 1504 1506 1506 1505 1504 1506 1513 1517 1519 1522 1522 1520 1521 1525 1529 1531 1533 1535 1536 1538 1540 1541 1542 1542 1543 1543 1543
1489 1489 1489 1489 1489 1489 1489 1489 1489 1489 1490 1491 1492 1491 1492 1493 1492 1492 1494 1495 1494 1493 1494 1494 1494 1494 1494 1495 1495 1495 1495 1496 1496 1495 1494 1494 1494 1494 1493 1493 1492 1492 1492 1492 1494 1497 1498 1499 1498 1498 1503 1505 1500 1499 1499 1495 1494 1500 1504 1504 1504 1504 1505 1506 1505 1504 1504 1507 1514 1518 1515 1513 1516 1520 1525 1529 1531 1533 1535 1537 1538 1540 1541 1543 1544 1544 1545 1545